M I D A S
Marine Information and Data Acquisition System
Tripno 859 of the Zeeleeuw from 2005-03-09 07:26:14 to 2005-03-09 16:05:02
Back to CruiseResearch ActivitiesStationsMapUnderway DataData graphs

EquipmentUnitsComments
TimeDGPSUTC
LatitudeDGPSDM.mWGS84
LongitudeDGPSDM.mWGS84
SpeedMeteo Stationm/sRelative wind speed
DirectionMeteo StationdegRelative wind direction
TemperatureMeteo Stationdeg CelciusAir temperature
PressureMeteo StationPaAtmospheric pressure
HumidityMeteo Station%Relative humidity
Missing or incorrect values are displayed as -999
Metereological data collected by the RV Zeeleeuw from 2005-03-09 07:26:29 to 2005-03-09 16:16:56
                                                                                    Next 1000 lines
Time Latitude Longitude Speed Direction Temperature Pressure Humidity
2005-03-09 07:26:38 51°13.596 2°56.098 7.5 209 5.1 102990 83
2005-03-09 07:26:44 51°13.597 2°56.094 8.7 226 5.1 102980 83
2005-03-09 07:26:50 51°13.599 2°56.088 7.8 198 5.1 102980 83
2005-03-09 07:26:55 51°13.6 2°56.082 6.8 201 5 102990 83
2005-03-09 07:27:00 51°13.602 2°56.076 8 203 5 102990 83
2005-03-09 07:27:04 51°13.604 2°56.071 7.9 202 5 102990 83
2005-03-09 07:27:10 51°13.606 2°56.064 8.1 203 5 102990 83
2005-03-09 07:27:14 51°13.608 2°56.057 6.6 196 5 103000 83
2005-03-09 07:27:19 51°13.61 2°56.05 7.7 198 5 103000 83
2005-03-09 07:27:25 51°13.613 2°56.041 6 197 5 102980 83
2005-03-09 07:27:30 51°13.615 2°56.034 11.1 202 5 102980 83
2005-03-09 07:27:34 51°13.617 2°56.027 8.2 192 5 102990 83
2005-03-09 07:27:40 51°13.62 2°56.018 6.3 196 5 102990 83
2005-03-09 07:27:44 51°13.622 2°56.011 8.1 198 5 103000 83
2005-03-09 07:27:50 51°13.625 2°56.002 9.8 204 5 103000 83
2005-03-09 07:27:54 51°13.627 2°55.995 6.4 197 5 103000 83
2005-03-09 07:28:00 51°13.63 2°55.986 8.3 201 5 103000 83
2005-03-09 07:28:04 51°13.633 2°55.978 7.9 199 5.1 102990 83
2005-03-09 07:28:10 51°13.636 2°55.969 9.8 194 5.1 102990 83
2005-03-09 07:28:14 51°13.639 2°55.962 8.1 193 5.1 102990 83
2005-03-09 07:28:20 51°13.642 2°55.953 8.4 187 5.1 102990 83
2005-03-09 07:28:24 51°13.645 2°55.946 9.4 199 5.2 102990 84
2005-03-09 07:28:29 51°13.648 2°55.938 5.6 186 5.2 102990 84
2005-03-09 07:28:34 51°13.652 2°55.93 7.1 196 5.2 102990 83
2005-03-09 07:28:40 51°13.656 2°55.921 9.3 181 5.2 102990 83
2005-03-09 07:28:45 51°13.661 2°55.913 8.1 184 5.2 103000 83
2005-03-09 07:28:50 51°13.665 2°55.905 5.9 184 5.2 103000 83
2005-03-09 07:28:54 51°13.669 2°55.898 6.4 184 5.3 102990 84
2005-03-09 07:29:00 51°13.673 2°55.889 6.1 194 5.3 102990 84
2005-03-09 07:29:04 51°13.677 2°55.882 5.8 191 5.3 102990 83
2005-03-09 07:29:10 51°13.682 2°55.872 9.5 196 5.3 102990 83
2005-03-09 07:29:14 51°13.686 2°55.864 7.5 183 5.4 102980 84
2005-03-09 07:29:19 51°13.69 2°55.856 9.7 199 5.4 102980 84
2005-03-09 07:29:24 51°13.693 2°55.848 6.6 194 5.6 102980 84
2005-03-09 07:29:30 51°13.698 2°55.839 11.8 205 5.6 102980 84
2005-03-09 07:29:34 51°13.701 2°55.832 11.4 200 5.6 102990 83
2005-03-09 07:29:40 51°13.704 2°55.823 7.1 201 5.6 102990 83
2005-03-09 07:29:44 51°13.707 2°55.815 9.7 199 5.6 102990 83
2005-03-09 07:29:50 51°13.71 2°55.806 13.1 216 5.6 102990 83
2005-03-09 07:29:54 51°13.713 2°55.798 10.1 212 5.6 102990 82
2005-03-09 07:30:00 51°13.716 2°55.788 14.5 216 5.6 102990 82
2005-03-09 07:30:05 51°13.719 2°55.779 12.8 212 5.5 103010 81
2005-03-09 07:30:10 51°13.722 2°55.77 8.9 211 5.5 103010 81
2005-03-09 07:30:15 51°13.724 2°55.761 10.1 213 5.5 102990 81
2005-03-09 07:30:20 51°13.727 2°55.752 10 224 5.5 102990 81
2005-03-09 07:30:24 51°13.729 2°55.744 10.3 222 5.4 103010 81
2005-03-09 07:30:30 51°13.731 2°55.734 9.9 225 5.4 103010 81
2005-03-09 07:30:35 51°13.733 2°55.724 8.8 223 5.4 103010 81
2005-03-09 07:30:40 51°13.734 2°55.715 10.3 233 5.4 103010 81
2005-03-09 07:30:44 51°13.735 2°55.709 8.3 231 5.3 103000 81
2005-03-09 07:30:50 51°13.736 2°55.702 11.2 232 5.3 103000 81
2005-03-09 07:30:54 51°13.737 2°55.699 8.6 241 5.3 103010 81
2005-03-09 07:30:58 51°13.737 2°55.698 6.5 254 5.3 103010 81
2005-03-09 07:31:04 51°13.737 2°55.7 7.9 280 5.3 103000 81
2005-03-09 07:31:09 51°13.738 2°55.704 7 282 5.3 103000 81
2005-03-09 07:31:14 51°13.74 2°55.708 8.7 278 5.2 103010 81
2005-03-09 07:31:19 51°13.741 2°55.712 8.4 288 5.2 103010 81
2005-03-09 07:31:24 51°13.742 2°55.714 8.1 288 5.2 103010 81
2005-03-09 07:31:28 51°13.742 2°55.715 7.2 291 5.2 103010 81
2005-03-09 07:31:34 51°13.742 2°55.715 7.6 288 5.2 102980 81
2005-03-09 07:31:39 51°13.742 2°55.714 8.8 276 5.2 102980 81
2005-03-09 07:31:44 51°13.74 2°55.713 7.6 279 5.2 102990 81
2005-03-09 07:31:49 51°13.738 2°55.71 5.9 278 5.2 102990 81
2005-03-09 07:31:54 51°13.736 2°55.707 8 255 5.2 102980 81
2005-03-09 07:32:00 51°13.734 2°55.703 7.8 278 5.2 102980 81
2005-03-09 07:32:04 51°13.732 2°55.701 7.4 293 5.1 102990 81
2005-03-09 07:32:10 51°13.731 2°55.7 8.5 303 5.1 102990 81
2005-03-09 07:32:15 51°13.732 2°55.7 7.7 227 5.1 102990 81
2005-03-09 07:32:20 51°13.734 2°55.701 8.4 296 5.1 102990 81
2005-03-09 07:32:24 51°13.736 2°55.702 6.7 296 5.1 102980 81
2005-03-09 07:32:30 51°13.741 2°55.703 8.2 342 5.1 102980 81
2005-03-09 07:32:34 51°13.746 2°55.703 7.2 350 5.1 102990 82
2005-03-09 07:32:40 51°13.753 2°55.7 7.7 356 5.1 102990 82
2005-03-09 07:32:44 51°13.758 2°55.697 9.3 339 5.1 102980 82
2005-03-09 07:32:49 51°13.764 2°55.692 8.1 16 5.1 102980 82
2005-03-09 07:32:54 51°13.77 2°55.687 9.3 354 5.1 102960 82
2005-03-09 07:32:59 51°13.776 2°55.682 10.1 4 5.1 102960 82
2005-03-09 07:33:04 51°13.783 2°55.676 9.3 355 5.1 102960 82
2005-03-09 07:33:09 51°13.791 2°55.669 11.9 356 5.1 102960 82
2005-03-09 07:33:14 51°13.798 2°55.663 13.3 359 5.1 102960 82
2005-03-09 07:33:19 51°13.805 2°55.657 12.8 349 5.1 102960 82
2005-03-09 07:33:24 51°13.814 2°55.65 11.4 346 5.1 102970 82
2005-03-09 07:33:29 51°13.821 2°55.644 10.5 357 5.1 102970 82
2005-03-09 07:33:34 51°13.83 2°55.637 13.1 346 5 102980 82
2005-03-09 07:33:39 51°13.84 2°55.63 12 358 5 102980 82
2005-03-09 07:33:44 51°13.848 2°55.624 13.9 359 5 102980 82
2005-03-09 07:33:48 51°13.856 2°55.619 12 349 5 102980 82
2005-03-09 07:33:54 51°13.868 2°55.61 12.6 348 5 102970 82
2005-03-09 07:33:59 51°13.876 2°55.604 10.1 356 5 102970 82
2005-03-09 07:34:04 51°13.887 2°55.597 10.8 344 5 102970 82
2005-03-09 07:34:09 51°13.896 2°55.59 9.3 344 5 102970 82
2005-03-09 07:34:14 51°13.905 2°55.583 9.5 351 5 102970 82
2005-03-09 07:34:19 51°13.915 2°55.576 9.6 359 5 102970 82
2005-03-09 07:34:24 51°13.925 2°55.568 9.3 -999 5 102970 82
2005-03-09 07:34:29 51°13.936 2°55.56 8.4 1 5 102970 82
2005-03-09 07:34:34 51°13.946 2°55.553 9.1 1 4.9 102970 82
2005-03-09 07:34:39 51°13.957 2°55.545 9.1 5 4.9 102970 82
2005-03-09 07:34:44 51°13.967 2°55.538 11.7 349 4.9 102980 82
2005-03-09 07:34:50 51°13.98 2°55.529 10.2 352 4.9 102980 82
2005-03-09 07:34:55 51°13.992 2°55.521 9.8 349 4.9 102980 82
2005-03-09 07:35:00 51°14.002 2°55.514 13.2 356 4.9 102980 82
2005-03-09 07:35:04 51°14.011 2°55.508 12 352 4.9 102980 82
2005-03-09 07:35:09 51°14.023 2°55.499 13.3 351 4.9 102980 82
2005-03-09 07:35:14 51°14.034 2°55.491 13.2 354 4.9 102970 83
2005-03-09 07:35:19 51°14.045 2°55.483 11.8 348 4.9 102970 83
2005-03-09 07:35:24 51°14.054 2°55.476 13.5 352 4.9 102970 83
2005-03-09 07:35:28 51°14.063 2°55.47 12.3 354 4.9 102970 83
2005-03-09 07:35:34 51°14.076 2°55.46 11.7 356 4.8 102960 83
2005-03-09 07:35:38 51°14.086 2°55.452 12.3 348 4.8 102960 83
2005-03-09 07:35:44 51°14.098 2°55.442 11.3 351 4.8 102960 83
2005-03-09 07:35:48 51°14.107 2°55.435 12.2 355 4.8 102960 83
2005-03-09 07:35:54 51°14.12 2°55.424 12.3 349 4.8 102960 83
2005-03-09 07:35:58 51°14.13 2°55.416 14 355 4.8 102960 83
2005-03-09 07:36:04 51°14.143 2°55.405 12.8 354 4.8 102960 83
2005-03-09 07:36:09 51°14.156 2°55.393 13.1 348 4.8 102960 83
2005-03-09 07:36:14 51°14.167 2°55.381 12.4 356 4.8 102970 83
2005-03-09 07:36:20 51°14.18 2°55.368 12.6 359 4.8 102970 83
2005-03-09 07:36:24 51°14.189 2°55.357 12 3 4.7 102970 84
2005-03-09 07:36:30 51°14.202 2°55.341 13 355 4.7 102970 84
2005-03-09 07:36:34 51°14.212 2°55.328 13.1 359 4.7 102960 84
2005-03-09 07:36:39 51°14.223 2°55.313 13.6 359 4.7 102960 84
2005-03-09 07:36:44 51°14.232 2°55.299 12.8 4 4.7 102960 84
2005-03-09 07:36:50 51°14.245 2°55.28 13.7 -999 4.7 102960 84
2005-03-09 07:36:54 51°14.254 2°55.265 15 3 4.7 102960 84
2005-03-09 07:36:59 51°14.264 2°55.248 13.8 2 4.7 102960 84
2005-03-09 07:37:04 51°14.273 2°55.233 13.6 5 4.7 102960 84
2005-03-09 07:37:08 51°14.281 2°55.219 14 -999 4.7 102960 84
2005-03-09 07:37:14 51°14.294 2°55.196 13.2 2 4.7 102970 84
2005-03-09 07:37:18 51°14.301 2°55.182 13.9 6 4.7 102970 84
2005-03-09 07:37:24 51°14.312 2°55.162 13.1 6 4.6 102960 84
2005-03-09 07:37:29 51°14.322 2°55.143 14.6 5 4.6 102960 84
2005-03-09 07:37:34 51°14.332 2°55.125 15.1 360 4.6 102970 84
2005-03-09 07:37:38 51°14.342 2°55.108 14 4 4.6 102970 84
2005-03-09 07:37:44 51°14.352 2°55.086 14.6 9 4.6 102970 84
2005-03-09 07:37:48 51°14.361 2°55.07 14.4 5 4.6 102970 84
2005-03-09 07:37:54 51°14.372 2°55.047 13.3 6 4.6 102970 85
2005-03-09 07:37:59 51°14.384 2°55.025 13.6 2 4.6 102970 85
2005-03-09 07:38:04 51°14.396 2°55.005 13.9 358 4.6 102970 85
2005-03-09 07:38:09 51°14.408 2°54.987 14.9 358 4.6 102970 85
2005-03-09 07:38:14 51°14.419 2°54.97 15.2 357 4.6 102970 85
2005-03-09 07:38:20 51°14.434 2°54.947 15.1 359 4.6 102970 85
2005-03-09 07:38:24 51°14.444 2°54.932 14.6 2 4.6 102970 85
2005-03-09 07:38:29 51°14.458 2°54.912 15.9 357 4.6 102970 85
2005-03-09 07:38:34 51°14.47 2°54.894 15.1 355 4.6 102970 85
2005-03-09 07:38:39 51°14.485 2°54.873 14.9 357 4.6 102970 85
2005-03-09 07:38:44 51°14.497 2°54.856 15.6 355 4.6 102950 85
2005-03-09 07:38:49 51°14.511 2°54.834 15.8 358 4.6 102950 85
2005-03-09 07:38:54 51°14.524 2°54.815 15.7 358 4.6 102960 85
2005-03-09 07:38:59 51°14.537 2°54.795 15.1 356 4.6 102960 85
2005-03-09 07:39:04 51°14.549 2°54.777 15.8 358 4.6 102960 85
2005-03-09 07:39:08 51°14.559 2°54.761 15.6 360 4.6 102960 85
2005-03-09 07:39:14 51°14.575 2°54.737 15 1 4.6 102950 85
2005-03-09 07:39:19 51°14.589 2°54.715 15.4 360 4.6 102950 85
2005-03-09 07:39:24 51°14.6 2°54.696 16 356 4.6 102950 85
2005-03-09 07:39:28 51°14.612 2°54.678 15.4 356 4.6 102950 85
2005-03-09 07:39:34 51°14.627 2°54.655 15.4 360 4.6 102950 85
2005-03-09 07:39:39 51°14.641 2°54.635 15.6 359 4.6 102950 85
2005-03-09 07:39:44 51°14.654 2°54.618 15.7 358 4.6 102960 85
2005-03-09 07:39:49 51°14.668 2°54.598 14.7 1 4.6 102960 85
2005-03-09 07:39:54 51°14.682 2°54.579 15.1 357 4.6 102950 85
2005-03-09 07:39:59 51°14.694 2°54.562 15.1 358 4.6 102950 85
2005-03-09 07:40:04 51°14.709 2°54.542 14.8 1 4.5 102960 85
2005-03-09 07:40:09 51°14.723 2°54.524 15.6 356 4.5 102960 85
2005-03-09 07:40:14 51°14.737 2°54.506 14.5 355 4.6 102970 85
2005-03-09 07:40:18 51°14.748 2°54.492 14.5 353 4.6 102970 85
2005-03-09 07:40:24 51°14.764 2°54.474 15.3 358 4.6 102960 85
2005-03-09 07:40:29 51°14.779 2°54.456 15.3 355 4.6 102960 85
2005-03-09 07:40:34 51°14.793 2°54.44 14.3 355 4.6 102950 85
2005-03-09 07:40:39 51°14.807 2°54.422 14.9 355 4.6 102950 85
2005-03-09 07:40:44 51°14.822 2°54.406 14.6 355 4.5 102960 85
2005-03-09 07:40:49 51°14.836 2°54.389 15.1 354 4.5 102960 85
2005-03-09 07:40:54 51°14.852 2°54.371 14.4 355 4.6 102960 85
2005-03-09 07:40:58 51°14.863 2°54.357 14.5 357 4.6 102960 85
2005-03-09 07:41:04 51°14.878 2°54.339 15.5 359 4.5 102960 85
2005-03-09 07:41:08 51°14.889 2°54.325 14.8 356 4.5 102960 85
2005-03-09 07:41:14 51°14.908 2°54.302 15.2 357 4.6 102950 85
2005-03-09 07:41:20 51°14.923 2°54.283 14.5 357 4.6 102950 85
2005-03-09 07:41:24 51°14.934 2°54.269 14.6 355 4.5 102960 85
2005-03-09 07:41:30 51°14.951 2°54.249 14.3 355 4.5 102960 85
2005-03-09 07:41:34 51°14.964 2°54.233 14.3 357 4.5 102960 85
2005-03-09 07:41:39 51°14.978 2°54.216 14.9 357 4.5 102960 85
2005-03-09 07:41:44 51°14.991 2°54.201 14 1 4.5 102950 85
2005-03-09 07:41:49 51°15.004 2°54.184 15.6 355 4.5 102950 85
2005-03-09 07:41:54 51°15.019 2°54.165 14.5 353 4.6 102970 85
2005-03-09 07:41:58 51°15.03 2°54.151 16.5 353 4.6 102970 85
2005-03-09 07:42:04 51°15.048 2°54.131 14.9 356 4.5 102960 86
2005-03-09 07:42:09 51°15.062 2°54.115 14.2 354 4.5 102960 86
2005-03-09 07:42:14 51°15.075 2°54.099 15.3 355 4.5 102960 86
2005-03-09 07:42:18 51°15.088 2°54.085 14.7 356 4.5 102960 86
2005-03-09 07:42:24 51°15.104 2°54.066 14.5 353 4.5 102960 86
2005-03-09 07:42:29 51°15.12 2°54.05 13.3 352 4.5 102960 86
2005-03-09 07:42:34 51°15.134 2°54.037 14.7 351 4.5 102950 86
2005-03-09 07:42:38 51°15.147 2°54.026 14.8 348 4.5 102950 86
2005-03-09 07:42:44 51°15.165 2°54.011 14.9 346 4.5 102970 86
2005-03-09 07:42:50 51°15.184 2°53.997 15.3 347 4.5 102970 86
2005-03-09 07:42:54 51°15.199 2°53.987 14.8 348 4.5 102960 86
2005-03-09 07:42:59 51°15.214 2°53.977 13.9 346 4.5 102960 86
2005-03-09 07:43:04 51°15.229 2°53.966 14.7 348 4.5 102960 86
2005-03-09 07:43:08 51°15.242 2°53.957 15.2 345 4.5 102960 86
2005-03-09 07:43:14 51°15.263 2°53.94 14.8 348 4.5 102960 86
2005-03-09 07:43:19 51°15.278 2°53.927 15.3 351 4.5 102960 86
2005-03-09 07:43:24 51°15.292 2°53.915 14.9 349 4.5 102960 86
2005-03-09 07:43:28 51°15.306 2°53.902 14.2 350 4.5 102960 86
2005-03-09 07:43:34 51°15.325 2°53.886 14.8 351 4.5 102960 86
2005-03-09 07:43:38 51°15.337 2°53.874 14.3 349 4.5 102960 86
2005-03-09 07:43:44 51°15.354 2°53.859 14.2 351 4.5 102950 86
2005-03-09 07:43:48 51°15.366 2°53.848 14.3 346 4.5 102950 86
2005-03-09 07:43:54 51°15.386 2°53.83 14.8 350 4.5 102950 86
2005-03-09 07:43:59 51°15.401 2°53.817 14.5 347 4.5 102950 86
2005-03-09 07:44:04 51°15.416 2°53.804 13.9 348 4.5 102970 86
2005-03-09 07:44:08 51°15.428 2°53.793 13.6 349 4.5 102970 86
2005-03-09 07:44:14 51°15.448 2°53.775 15.1 348 4.5 102960 86
2005-03-09 07:44:18 51°15.46 2°53.763 15.3 348 4.5 102960 86
2005-03-09 07:44:24 51°15.477 2°53.748 13.9 350 4.5 102960 86
2005-03-09 07:44:29 51°15.494 2°53.732 14.9 348 4.5 102960 86
2005-03-09 07:44:34 51°15.509 2°53.718 14.7 348 4.5 102960 86
2005-03-09 07:44:38 51°15.522 2°53.706 14.4 349 4.5 102960 86
2005-03-09 07:44:44 51°15.54 2°53.69 14.5 346 4.5 102950 86
2005-03-09 07:44:49 51°15.555 2°53.675 14.5 347 4.5 102950 86
2005-03-09 07:44:54 51°15.569 2°53.663 15 348 4.5 102950 86
2005-03-09 07:44:59 51°15.584 2°53.648 13.4 349 4.5 102950 86
2005-03-09 07:45:04 51°15.599 2°53.634 14.6 346 4.5 102960 86
2005-03-09 07:45:09 51°15.614 2°53.62 14.2 348 4.5 102960 86
2005-03-09 07:45:14 51°15.631 2°53.605 14 348 4.5 102950 86
2005-03-09 07:45:19 51°15.647 2°53.592 13.4 347 4.5 102950 86
2005-03-09 07:45:23 51°15.659 2°53.581 14.7 350 4.5 102960 86
2005-03-09 07:45:29 51°15.677 2°53.565 12.9 348 4.5 102960 86
2005-03-09 07:45:34 51°15.692 2°53.552 14.1 348 4.5 102960 86
2005-03-09 07:45:39 51°15.708 2°53.538 14 350 4.5 102960 86
2005-03-09 07:45:44 51°15.721 2°53.526 14 349 4.5 102950 86
2005-03-09 07:45:48 51°15.733 2°53.515 14.2 350 4.5 102950 86
2005-03-09 07:45:54 51°15.753 2°53.499 14.3 349 4.5 102960 86
2005-03-09 07:45:59 51°15.768 2°53.485 14.3 349 4.5 102960 86
2005-03-09 07:46:04 51°15.782 2°53.474 14.7 348 4.5 102950 86
2005-03-09 07:46:09 51°15.799 2°53.459 14 350 4.5 102950 86
2005-03-09 07:46:14 51°15.814 2°53.446 13.9 349 4.5 102960 86
2005-03-09 07:46:18 51°15.826 2°53.435 14 351 4.5 102960 86
2005-03-09 07:46:24 51°15.843 2°53.42 14.5 352 4.5 102950 86
2005-03-09 07:46:28 51°15.855 2°53.409 13.6 348 4.5 102950 86
2005-03-09 07:46:34 51°15.874 2°53.392 14.2 350 4.5 102960 86
2005-03-09 07:46:39 51°15.889 2°53.379 13.4 350 4.5 102960 86
2005-03-09 07:46:44 51°15.905 2°53.366 13.9 348 4.5 102960 86
2005-03-09 07:46:49 51°15.918 2°53.355 13.1 351 4.5 102960 86
2005-03-09 07:46:54 51°15.933 2°53.341 14.2 351 4.5 102960 86
2005-03-09 07:46:59 51°15.95 2°53.327 13.7 353 4.5 102960 86
2005-03-09 07:47:04 51°15.965 2°53.313 14.6 350 4.5 102960 86
2005-03-09 07:47:08 51°15.976 2°53.305 13.1 349 4.5 102960 86
2005-03-09 07:47:14 51°15.994 2°53.289 14.9 351 4.5 102960 86
2005-03-09 07:47:18 51°16.008 2°53.277 14.3 351 4.5 102960 86
2005-03-09 07:47:24 51°16.025 2°53.263 14.1 351 4.5 102960 86
2005-03-09 07:47:28 51°16.037 2°53.253 14.6 351 4.5 102960 86
2005-03-09 07:47:34 51°16.056 2°53.236 13.9 350 4.5 102950 87
2005-03-09 07:47:39 51°16.07 2°53.223 14.3 350 4.5 102950 87
2005-03-09 07:47:44 51°16.086 2°53.21 14.6 348 4.5 102970 87
2005-03-09 07:47:48 51°16.098 2°53.199 13.7 352 4.5 102970 87
2005-03-09 07:47:54 51°16.115 2°53.185 13.4 351 4.5 102950 87
2005-03-09 07:47:59 51°16.132 2°53.172 13.9 351 4.5 102950 87
2005-03-09 07:48:04 51°16.146 2°53.16 14.5 351 4.5 102960 86
2005-03-09 07:48:09 51°16.163 2°53.146 13.7 351 4.5 102960 86
2005-03-09 07:48:14 51°16.178 2°53.134 14.6 351 4.5 102960 87
2005-03-09 07:48:19 51°16.192 2°53.122 13.1 351 4.5 102960 87
2005-03-09 07:48:24 51°16.207 2°53.109 13.9 351 4.5 102960 87
2005-03-09 07:48:28 51°16.219 2°53.099 13.5 352 4.5 102960 87
2005-03-09 07:48:34 51°16.237 2°53.085 14.5 351 4.5 102960 87
2005-03-09 07:48:39 51°16.254 2°53.07 14.7 350 4.5 102960 87
2005-03-09 07:48:44 51°16.268 2°53.059 15.1 354 4.5 102970 87
2005-03-09 07:48:49 51°16.282 2°53.047 13.7 349 4.5 102970 87
2005-03-09 07:48:54 51°16.298 2°53.034 13.1 350 4.5 102970 87
2005-03-09 07:48:58 51°16.312 2°53.022 13.7 349 4.5 102970 87
2005-03-09 07:49:04 51°16.329 2°53.008 13.7 353 4.5 102950 87
2005-03-09 07:49:08 51°16.341 2°52.998 14.6 355 4.5 102950 87
2005-03-09 07:49:14 51°16.359 2°52.982 13.2 353 4.5 102950 87
2005-03-09 07:49:19 51°16.374 2°52.97 14.3 353 4.5 102950 87
2005-03-09 07:49:24 51°16.389 2°52.957 13.2 351 4.5 102960 87
2005-03-09 07:49:29 51°16.405 2°52.944 13.4 349 4.5 102960 87
2005-03-09 07:49:34 51°16.422 2°52.931 14.1 351 4.5 102970 87
2005-03-09 07:49:39 51°16.435 2°52.919 14.3 349 4.5 102970 87
2005-03-09 07:49:44 51°16.451 2°52.907 13.2 351 4.5 102970 87
2005-03-09 07:49:48 51°16.463 2°52.897 14.5 354 4.5 102970 87
2005-03-09 07:49:54 51°16.483 2°52.88 12.8 351 4.5 102960 87
2005-03-09 07:49:58 51°16.496 2°52.87 14.2 349 4.5 102960 87
2005-03-09 07:50:04 51°16.512 2°52.857 13.2 351 4.5 102960 87
2005-03-09 07:50:09 51°16.53 2°52.842 13.6 351 4.5 102960 87
2005-03-09 07:50:14 51°16.543 2°52.83 12.8 351 4.5 102970 87
2005-03-09 07:50:19 51°16.56 2°52.816 14.2 351 4.5 102970 87
2005-03-09 07:50:24 51°16.574 2°52.804 14 353 4.5 102960 87
2005-03-09 07:50:29 51°16.59 2°52.791 14.7 350 4.5 102960 87
2005-03-09 07:50:34 51°16.605 2°52.778 13.2 351 4.5 102950 87
2005-03-09 07:50:38 51°16.617 2°52.769 13.6 350 4.5 102950 87
2005-03-09 07:50:44 51°16.634 2°52.755 13.9 353 4.5 102970 87
2005-03-09 07:50:49 51°16.651 2°52.742 14.7 351 4.5 102970 87
2005-03-09 07:50:54 51°16.666 2°52.728 13.1 351 4.5 102980 87
2005-03-09 07:50:59 51°16.681 2°52.716 15.4 352 4.5 102980 87
2005-03-09 07:51:04 51°16.695 2°52.705 14.6 353 4.5 102960 87
2005-03-09 07:51:08 51°16.707 2°52.695 14.4 353 4.5 102960 87
2005-03-09 07:51:14 51°16.726 2°52.678 13.9 353 4.5 102970 87
2005-03-09 07:51:19 51°16.741 2°52.664 13.2 351 4.5 102970 87
2005-03-09 07:51:24 51°16.755 2°52.653 14.5 351 4.5 102960 87
2005-03-09 07:51:28 51°16.767 2°52.642 12.5 351 4.5 102960 87
2005-03-09 07:51:34 51°16.786 2°52.627 14.9 349 4.5 102950 87
2005-03-09 07:51:39 51°16.801 2°52.615 14.3 354 4.5 102950 87
2005-03-09 07:51:44 51°16.815 2°52.603 13.9 351 4.5 102970 87
2005-03-09 07:51:49 51°16.829 2°52.591 13.9 350 4.5 102970 87
2005-03-09 07:51:54 51°16.844 2°52.578 14.8 352 4.5 102970 87
2005-03-09 07:51:58 51°16.857 2°52.567 13.6 354 4.5 102970 87
2005-03-09 07:52:03 51°16.872 2°52.554 14 352 4.5 102960 87
2005-03-09 07:52:09 51°16.889 2°52.541 14 356 4.5 102960 87
2005-03-09 07:52:14 51°16.904 2°52.527 13.2 351 4.5 102970 86
2005-03-09 07:52:18 51°16.917 2°52.515 13.2 350 4.5 102970 86
2005-03-09 07:52:25 51°16.937 2°52.498 14.9 354 4.5 102960 86
2005-03-09 07:52:28 51°16.948 2°52.489 14.1 350 4.5 102960 86
2005-03-09 07:52:34 51°16.965 2°52.473 15.1 353 4.5 102970 86
2005-03-09 07:52:39 51°16.978 2°52.462 14.5 350 4.5 102970 86
2005-03-09 07:52:44 51°16.993 2°52.449 14 354 4.6 102970 86
2005-03-09 07:52:50 51°17.011 2°52.433 14.8 350 4.6 102970 86
2005-03-09 07:52:54 51°17.023 2°52.423 14.6 353 4.6 102970 86
2005-03-09 07:52:59 51°17.038 2°52.409 14 350 4.6 102970 86
2005-03-09 07:53:04 51°17.052 2°52.397 14.5 352 4.6 102970 86
2005-03-09 07:53:08 51°17.064 2°52.386 14.1 353 4.6 102970 86
2005-03-09 07:53:14 51°17.083 2°52.37 14.9 351 4.6 102960 86
2005-03-09 07:53:19 51°17.097 2°52.357 14.2 355 4.6 102960 86
2005-03-09 07:53:24 51°17.112 2°52.344 15.4 348 4.5 102980 86
2005-03-09 07:53:30 51°17.131 2°52.331 14 348 4.5 102980 86
2005-03-09 07:53:34 51°17.146 2°52.323 13.6 345 4.6 102970 86
2005-03-09 07:53:38 51°17.158 2°52.317 14.5 348 4.6 102970 86
2005-03-09 07:53:44 51°17.176 2°52.31 13.7 344 4.6 102970 86
2005-03-09 07:53:49 51°17.193 2°52.304 15 339 4.6 102970 86
2005-03-09 07:53:54 51°17.208 2°52.299 15.3 339 4.6 102960 86
2005-03-09 07:53:59 51°17.226 2°52.294 13.6 341 4.6 102960 86
2005-03-09 07:54:04 51°17.24 2°52.291 14.1 341 4.6 102960 86
2005-03-09 07:54:08 51°17.256 2°52.287 13.7 339 4.6 102960 86
2005-03-09 07:54:14 51°17.273 2°52.282 14.8 340 4.6 102950 86
2005-03-09 07:54:19 51°17.292 2°52.279 14.6 334 4.6 102950 86
2005-03-09 07:54:24 51°17.308 2°52.278 14 338 4.6 102950 86
2005-03-09 07:54:28 51°17.321 2°52.277 14.2 337 4.6 102950 86
2005-03-09 07:54:34 51°17.338 2°52.278 13.7 334 4.6 102960 86
2005-03-09 07:54:39 51°17.357 2°52.278 15 336 4.6 102960 86
2005-03-09 07:54:44 51°17.372 2°52.28 13.6 336 4.6 102960 86
2005-03-09 07:54:49 51°17.389 2°52.281 13.5 337 4.6 102960 86
2005-03-09 07:54:54 51°17.406 2°52.283 14.1 333 4.6 102950 86
2005-03-09 07:54:59 51°17.422 2°52.284 14 335 4.6 102950 86
2005-03-09 07:55:04 51°17.436 2°52.285 13.6 332 4.6 102940 86
2005-03-09 07:55:10 51°17.456 2°52.287 14.8 335 4.6 102940 86
2005-03-09 07:55:14 51°17.471 2°52.288 14.6 333 4.6 102970 86
2005-03-09 07:55:19 51°17.485 2°52.29 13.9 333 4.6 102970 86
2005-03-09 07:55:24 51°17.501 2°52.29 15.2 335 4.6 102920 86
2005-03-09 07:55:29 51°17.52 2°52.292 14.9 339 4.6 102920 86
2005-03-09 07:55:34 51°17.536 2°52.293 14.3 337 4.6 102920 86
2005-03-09 07:55:38 51°17.549 2°52.294 14.5 335 4.6 102920 86
2005-03-09 07:55:43 51°17.565 2°52.296 13.6 329 4.7 102920 86
2005-03-09 07:55:50 51°17.587 2°52.299 14.3 330 4.7 102920 86
2005-03-09 07:55:54 51°17.601 2°52.302 13.7 337 4.7 102920 85
2005-03-09 07:55:58 51°17.613 2°52.305 12.5 334 4.7 102920 85
2005-03-09 07:56:04 51°17.631 2°52.308 13.2 334 4.7 102960 85
2005-03-09 07:56:09 51°17.649 2°52.312 15 334 4.7 102960 85
2005-03-09 07:56:14 51°17.664 2°52.315 14.1 333 4.7 102920 85
2005-03-09 07:56:19 51°17.681 2°52.319 14 330 4.7 102920 85
2005-03-09 07:56:23 51°17.694 2°52.32 13.1 335 4.7 102920 85
2005-03-09 07:56:28 51°17.708 2°52.323 14.5 332 4.7 102920 85
2005-03-09 07:56:34 51°17.729 2°52.327 13.5 332 4.7 102920 85
2005-03-09 07:56:39 51°17.745 2°52.331 14.6 332 4.7 102920 85
2005-03-09 07:56:44 51°17.76 2°52.332 14.8 335 4.7 102920 85
2005-03-09 07:56:49 51°17.778 2°52.336 14.2 335 4.7 102920 85
2005-03-09 07:56:54 51°17.794 2°52.339 14.4 334 4.7 102920 85
2005-03-09 07:56:59 51°17.81 2°52.342 13.7 332 4.7 102920 85
2005-03-09 07:57:04 51°17.824 2°52.346 13.8 332 4.7 102920 85
2005-03-09 07:57:09 51°17.842 2°52.351 13.2 336 4.7 102920 85
2005-03-09 07:57:14 51°17.859 2°52.356 12.2 331 4.7 102920 85
2005-03-09 07:57:19 51°17.873 2°52.362 15.3 332 4.7 102920 85
2005-03-09 07:57:24 51°17.887 2°52.368 13 330 4.7 102920 85
2005-03-09 07:57:30 51°17.907 2°52.374 14.3 332 4.7 102920 85
2005-03-09 07:57:34 51°17.921 2°52.38 12.8 335 4.7 102920 85
2005-03-09 07:57:39 51°17.937 2°52.385 14.8 330 4.7 102920 85
2005-03-09 07:57:44 51°17.951 2°52.391 14.9 330 4.7 102930 85
2005-03-09 07:57:48 51°17.963 2°52.395 11.8 326 4.7 102930 85
2005-03-09 07:57:54 51°17.983 2°52.402 14.1 333 4.7 102920 85
2005-03-09 07:57:59 51°18 2°52.409 12 333 4.7 102920 85
2005-03-09 07:58:04 51°18.014 2°52.414 14.2 330 4.7 102920 85
2005-03-09 07:58:08 51°18.027 2°52.419 14.1 333 4.7 102920 85
2005-03-09 07:58:14 51°18.048 2°52.427 13 326 4.7 102920 85
2005-03-09 07:58:19 51°18.064 2°52.434 13.6 325 4.7 102920 85
2005-03-09 07:58:24 51°18.077 2°52.442 14.2 328 4.7 102920 85
2005-03-09 07:58:29 51°18.094 2°52.452 13.9 329 4.7 102920 85
2005-03-09 07:58:33 51°18.106 2°52.461 12.8 324 4.7 102920 85
2005-03-09 07:58:39 51°18.122 2°52.473 14.8 321 4.7 102920 85
2005-03-09 07:58:44 51°18.136 2°52.487 13 322 4.7 102920 85
2005-03-09 07:58:49 51°18.151 2°52.503 12.2 317 4.7 102920 85
2005-03-09 07:58:53 51°18.161 2°52.516 12.4 315 4.7 102910 84
2005-03-09 07:58:58 51°18.173 2°52.532 13 316 4.7 102910 84
2005-03-09 07:59:04 51°18.187 2°52.551 13.9 317 4.7 102920 84
2005-03-09 07:59:09 51°18.201 2°52.569 12.1 316 4.7 102920 84
2005-03-09 07:59:14 51°18.213 2°52.586 12.2 317 4.7 102920 84
2005-03-09 07:59:19 51°18.225 2°52.603 12.1 316 4.7 102920 84
2005-03-09 07:59:24 51°18.236 2°52.619 12 320 4.7 102920 84
2005-03-09 07:59:29 51°18.249 2°52.637 12.2 228 4.7 102920 84
2005-03-09 07:59:34 51°18.26 2°52.658 11.9 313 4.7 102920 84
2005-03-09 07:59:38 51°18.268 2°52.675 11.7 313 4.7 102920 84
2005-03-09 07:59:43 51°18.277 2°52.697 11.3 309 4.7 102920 84
2005-03-09 07:59:48 51°18.285 2°52.718 10.5 311 4.7 102920 84
2005-03-09 07:59:54 51°18.294 2°52.744 10.5 306 4.7 102920 84
2005-03-09 07:59:59 51°18.303 2°52.77 10.9 307 4.7 102920 84
2005-03-09 08:00:04 51°18.309 2°52.792 9.1 313 4.7 102910 84
2005-03-09 08:00:08 51°18.315 2°52.811 10.2 313 4.7 102910 84
2005-03-09 08:00:14 51°18.326 2°52.841 10.5 312 4.7 102930 84
2005-03-09 08:00:19 51°18.333 2°52.864 10.8 305 4.7 102930 84
2005-03-09 08:00:24 51°18.34 2°52.885 10.2 307 4.7 102920 84
2005-03-09 08:00:28 51°18.346 2°52.904 11.1 311 4.7 102920 84
2005-03-09 08:00:34 51°18.356 2°52.933 10.2 310 4.7 102930 84
2005-03-09 08:00:38 51°18.362 2°52.954 9.3 312 4.7 102930 84
2005-03-09 08:00:44 51°18.37 2°52.98 11.1 308 4.7 102990 84
2005-03-09 08:00:49 51°18.379 2°53.006 9.8 305 4.7 102990 84
2005-03-09 08:00:54 51°18.385 2°53.028 10.5 308 4.7 102920 84
2005-03-09 08:00:58 51°18.393 2°53.049 10.9 311 4.7 102920 84
2005-03-09 08:01:04 51°18.402 2°53.074 12.1 311 4.7 102930 84
2005-03-09 08:01:09 51°18.41 2°53.098 11.2 307 4.7 102930 84
2005-03-09 08:01:14 51°18.418 2°53.121 11.3 307 4.7 102920 84
2005-03-09 08:01:19 51°18.427 2°53.144 10.7 309 4.7 102920 84
2005-03-09 08:01:24 51°18.434 2°53.167 9.6 311 4.7 102960 84
2005-03-09 08:01:29 51°18.444 2°53.192 11.6 311 4.7 102960 84
2005-03-09 08:01:34 51°18.451 2°53.212 11.7 309 4.7 102960 84
2005-03-09 08:01:38 51°18.458 2°53.234 12 305 4.7 102960 84
2005-03-09 08:01:44 51°18.467 2°53.259 11.1 306 4.7 102980 84
2005-03-09 08:01:49 51°18.477 2°53.284 10.5 309 4.7 102980 84
2005-03-09 08:01:54 51°18.486 2°53.307 11.2 310 4.7 102970 84
2005-03-09 08:01:59 51°18.493 2°53.327 10.9 306 4.7 102970 84
2005-03-09 08:02:04 51°18.502 2°53.35 11.1 311 4.7 102950 84
2005-03-09 08:02:09 51°18.51 2°53.376 12.4 306 4.7 102950 84
2005-03-09 08:02:14 51°18.517 2°53.397 11.8 307 4.7 102960 84
2005-03-09 08:02:19 51°18.526 2°53.422 12.3 305 4.7 102960 84
2005-03-09 08:02:24 51°18.534 2°53.443 11.5 305 4.7 102970 84
2005-03-09 08:02:30 51°18.543 2°53.469 10.3 309 4.7 102970 84
2005-03-09 08:02:34 51°18.55 2°53.491 11.7 307 4.7 102960 84
2005-03-09 08:02:38 51°18.557 2°53.509 10.9 306 4.7 102960 84
2005-03-09 08:02:44 51°18.566 2°53.535 11.4 309 4.7 102960 84
2005-03-09 08:02:48 51°18.571 2°53.552 10.9 302 4.7 102960 84
2005-03-09 08:02:54 51°18.581 2°53.58 9.5 310 4.7 102980 84
2005-03-09 08:02:59 51°18.588 2°53.603 11.7 307 4.7 102980 84
2005-03-09 08:03:04 51°18.597 2°53.626 11.5 312 4.7 102950 84
2005-03-09 08:03:08 51°18.604 2°53.647 11.2 303 4.7 102950 84
2005-03-09 08:03:14 51°18.613 2°53.671 11.8 304 4.7 102960 84
2005-03-09 08:03:19 51°18.622 2°53.695 10.3 313 4.7 102960 84
2005-03-09 08:03:24 51°18.629 2°53.715 10.9 307 4.7 102960 84
2005-03-09 08:03:28 51°18.636 2°53.737 10.2 307 4.7 102960 84
2005-03-09 08:03:34 51°18.645 2°53.764 11.3 304 4.7 102970 84
2005-03-09 08:03:39 51°18.652 2°53.785 9.8 305 4.7 102970 84
2005-03-09 08:03:44 51°18.659 2°53.81 11.5 308 4.7 102960 84
2005-03-09 08:03:49 51°18.667 2°53.83 10.9 308 4.7 102960 84
2005-03-09 08:03:54 51°18.674 2°53.853 10.8 308 4.7 102970 84
2005-03-09 08:03:59 51°18.683 2°53.879 11.4 306 4.7 102970 84
2005-03-09 08:04:04 51°18.69 2°53.902 10.7 226 4.7 102970 84
2005-03-09 08:04:10 51°18.699 2°53.925 10.1 309 4.7 102970 84
2005-03-09 08:04:14 51°18.706 2°53.947 10.1 313 4.7 102960 84
2005-03-09 08:04:18 51°18.711 2°53.963 11.8 304 4.7 102960 84
2005-03-09 08:04:24 51°18.721 2°53.989 11 310 4.7 102970 84
2005-03-09 08:04:27 51°18.727 2°54.005 10.2 312 4.7 102970 84
2005-03-09 08:04:34 51°18.738 2°54.036 11.7 304 4.7 102970 84
2005-03-09 08:04:38 51°18.744 2°54.054 10.6 312 4.7 102970 84
2005-03-09 08:04:44 51°18.754 2°54.077 11.7 304 4.7 102980 84
2005-03-09 08:04:48 51°18.761 2°54.098 10.6 307 4.7 102980 84
2005-03-09 08:04:54 51°18.771 2°54.124 11.1 308 4.7 102970 84
2005-03-09 08:04:59 51°18.78 2°54.147 12.6 307 4.7 102970 84
2005-03-09 08:05:04 51°18.788 2°54.166 11.8 304 4.7 102970 84
2005-03-09 08:05:09 51°18.796 2°54.188 11.2 309 4.7 102970 84
2005-03-09 08:05:14 51°18.805 2°54.209 10.7 308 4.7 102960 84
2005-03-09 08:05:19 51°18.813 2°54.232 10.6 306 4.7 102960 84
2005-03-09 08:05:24 51°18.822 2°54.254 11 306 4.7 102970 84
2005-03-09 08:05:29 51°18.83 2°54.277 11 307 4.7 102970 84
2005-03-09 08:05:34 51°18.839 2°54.301 10.8 310 4.7 102960 84
2005-03-09 08:05:40 51°18.847 2°54.325 10.2 309 4.7 102960 84
2005-03-09 08:05:44 51°18.854 2°54.342 11.2 308 4.7 102970 84
2005-03-09 08:05:48 51°18.86 2°54.36 10.8 310 4.7 102970 84
2005-03-09 08:05:54 51°18.871 2°54.388 12.6 306 4.7 102980 85
2005-03-09 08:05:58 51°18.877 2°54.407 10.3 310 4.7 102980 85
2005-03-09 08:06:04 51°18.887 2°54.43 12.4 311 4.7 102970 85
2005-03-09 08:06:09 51°18.895 2°54.454 12.7 303 4.7 102970 85
2005-03-09 08:06:14 51°18.902 2°54.474 10.3 305 4.7 102970 85
2005-03-09 08:06:18 51°18.91 2°54.492 11.4 227 4.7 102970 85
2005-03-09 08:06:24 51°18.919 2°54.515 10.7 312 4.7 102960 85
2005-03-09 08:06:30 51°18.93 2°54.542 9.9 308 4.7 102960 85
2005-03-09 08:06:34 51°18.937 2°54.56 10.8 230 4.7 102970 85
2005-03-09 08:06:39 51°18.946 2°54.581 11.5 312 4.7 102970 85
2005-03-09 08:06:44 51°18.954 2°54.6 11.3 309 4.6 102980 85
2005-03-09 08:06:49 51°18.964 2°54.623 13.1 306 4.6 102980 85
2005-03-09 08:06:54 51°18.972 2°54.642 11.7 307 4.7 102960 85
2005-03-09 08:06:58 51°18.979 2°54.661 9.8 229 4.7 102960 85
2005-03-09 08:07:03 51°18.988 2°54.681 11.6 306 4.7 102960 85
2005-03-09 08:07:08 51°18.995 2°54.7 11.4 308 4.7 102960 85
2005-03-09 08:07:14 51°19.006 2°54.725 11 309 4.6 102970 85
2005-03-09 08:07:19 51°19.015 2°54.748 11.6 312 4.6 102970 85
2005-03-09 08:07:24 51°19.024 2°54.765 13.1 307 4.6 102980 85
2005-03-09 08:07:29 51°19.033 2°54.788 10.7 310 4.6 102980 85
2005-03-09 08:07:34 51°19.041 2°54.807 11.5 307 4.7 102960 85
2005-03-09 08:07:38 51°19.049 2°54.826 12.9 304 4.7 102960 85
2005-03-09 08:07:43 51°19.058 2°54.847 11.5 307 4.6 102960 85
2005-03-09 08:07:49 51°19.068 2°54.872 9.6 312 4.6 102960 85
2005-03-09 08:07:54 51°19.075 2°54.89 11.5 308 4.6 102960 85
2005-03-09 08:07:59 51°19.085 2°54.914 12.1 310 4.6 102960 85
2005-03-09 08:08:04 51°19.091 2°54.933 10.9 305 4.6 102960 85
2005-03-09 08:08:09 51°19.101 2°54.955 10.8 311 4.6 102960 85
2005-03-09 08:08:14 51°19.109 2°54.975 10.9 315 4.6 102950 85
2005-03-09 08:08:19 51°19.118 2°54.999 12.7 305 4.6 102950 85
2005-03-09 08:08:24 51°19.126 2°55.017 11 311 4.6 102950 85
2005-03-09 08:08:29 51°19.135 2°55.04 11.5 307 4.6 102950 85
2005-03-09 08:08:34 51°19.143 2°55.059 10.7 306 4.6 102960 85
2005-03-09 08:08:39 51°19.152 2°55.081 10.4 308 4.6 102960 85
2005-03-09 08:08:44 51°19.16 2°55.102 12 313 4.6 102960 85
2005-03-09 08:08:49 51°19.17 2°55.124 10.2 313 4.6 102960 85
2005-03-09 08:08:54 51°19.177 2°55.144 11.4 309 4.6 102960 85
2005-03-09 08:08:58 51°19.185 2°55.163 10.5 314 4.6 102960 85
2005-03-09 08:09:03 51°19.192 2°55.184 12.2 307 4.6 102970 85
2005-03-09 08:09:09 51°19.203 2°55.21 11.1 301 4.6 102970 85
2005-03-09 08:09:14 51°19.21 2°55.229 11.6 304 4.6 102960 85
2005-03-09 08:09:19 51°19.219 2°55.253 10.5 305 4.6 102960 85
2005-03-09 08:09:24 51°19.227 2°55.272 11.3 306 4.6 102970 85
2005-03-09 08:09:30 51°19.237 2°55.297 11.3 311 4.6 102970 85
2005-03-09 08:09:34 51°19.245 2°55.316 10.7 300 4.6 102970 85
2005-03-09 08:09:38 51°19.251 2°55.332 11.9 307 4.6 102970 85
2005-03-09 08:09:44 51°19.261 2°55.356 10.3 311 4.6 102960 85
2005-03-09 08:09:48 51°19.268 2°55.372 11.6 314 4.6 102960 85
2005-03-09 08:09:54 51°19.28 2°55.399 11.6 304 4.6 102970 85
2005-03-09 08:09:59 51°19.287 2°55.42 11 307 4.6 102970 85
2005-03-09 08:10:03 51°19.294 2°55.437 12.1 305 4.6 102960 85
2005-03-09 08:10:07 51°19.301 2°55.455 11.9 306 4.6 102960 85
2005-03-09 08:10:14 51°19.313 2°55.485 11.3 312 4.6 102970 85
2005-03-09 08:10:18 51°19.32 2°55.502 12.6 315 4.6 102970 85
2005-03-09 08:10:24 51°19.329 2°55.525 11.3 308 4.6 102970 85
2005-03-09 08:10:29 51°19.339 2°55.548 11.3 310 4.6 102970 85
2005-03-09 08:10:34 51°19.348 2°55.57 11.6 306 4.6 102940 85
2005-03-09 08:10:38 51°19.355 2°55.587 11.3 315 4.6 102940 85
2005-03-09 08:10:44 51°19.364 2°55.611 11.3 311 4.6 102920 85
2005-03-09 08:10:49 51°19.374 2°55.635 11.9 303 4.6 102920 85
2005-03-09 08:10:54 51°19.383 2°55.656 11.1 309 4.6 102930 85
2005-03-09 08:10:59 51°19.391 2°55.678 11.3 309 4.6 102930 85
2005-03-09 08:11:04 51°19.399 2°55.697 10.3 313 4.6 102930 85
2005-03-09 08:11:08 51°19.407 2°55.713 11.1 232 4.6 102930 85
2005-03-09 08:11:14 51°19.418 2°55.742 12.2 306 4.6 102930 85
2005-03-09 08:11:19 51°19.425 2°55.762 11.7 307 4.6 102930 85
2005-03-09 08:11:24 51°19.435 2°55.785 12.7 312 4.6 102930 85
2005-03-09 08:11:28 51°19.442 2°55.801 12.8 309 4.6 102930 85
2005-03-09 08:11:34 51°19.454 2°55.828 13.4 307 4.6 102920 85
2005-03-09 08:11:39 51°19.463 2°55.85 11.1 309 4.6 102920 85
2005-03-09 08:11:44 51°19.471 2°55.87 10.3 312 4.6 102930 85
2005-03-09 08:11:48 51°19.48 2°55.888 11.7 227 4.6 102930 85
2005-03-09 08:11:54 51°19.491 2°55.914 11.6 311 4.6 102920 86
2005-03-09 08:12:00 51°19.5 2°55.937 11.3 313 4.6 102920 86
2005-03-09 08:12:04 51°19.507 2°55.956 11 313 4.6 102920 86
2005-03-09 08:12:09 51°19.516 2°55.98 11.2 310 4.6 102920 86
2005-03-09 08:12:14 51°19.525 2°55.999 11.5 309 4.6 102930 86
2005-03-09 08:12:18 51°19.532 2°56.016 12.6 311 4.6 102930 86
2005-03-09 08:12:24 51°19.543 2°56.042 10.9 313 4.6 102930 86
2005-03-09 08:12:27 51°19.549 2°56.058 11.7 307 4.6 102930 86
2005-03-09 08:12:34 51°19.561 2°56.085 11 313 4.6 102930 86
2005-03-09 08:12:38 51°19.569 2°56.105 12 307 4.6 102930 86
2005-03-09 08:12:44 51°19.579 2°56.129 11.7 303 4.6 102930 86
2005-03-09 08:12:49 51°19.589 2°56.152 10.7 307 4.6 102930 86
2005-03-09 08:12:54 51°19.597 2°56.171 10.7 310 4.6 102930 86
2005-03-09 08:12:59 51°19.605 2°56.194 11.4 310 4.6 102930 86
2005-03-09 08:13:04 51°19.615 2°56.216 11.1 310 4.6 102930 86
2005-03-09 08:13:09 51°19.624 2°56.24 10.9 308 4.6 102930 86
2005-03-09 08:13:14 51°19.632 2°56.259 11.1 309 4.6 102920 86
2005-03-09 08:13:19 51°19.642 2°56.281 10.2 312 4.6 102920 86
2005-03-09 08:13:24 51°19.65 2°56.301 11.7 308 4.6 102920 86
2005-03-09 08:13:29 51°19.659 2°56.328 11.4 309 4.6 102920 86
2005-03-09 08:13:34 51°19.668 2°56.346 12 313 4.6 102920 86
2005-03-09 08:13:39 51°19.677 2°56.371 11.1 313 4.6 102920 86
2005-03-09 08:13:44 51°19.687 2°56.389 11.7 310 4.6 102920 86
2005-03-09 08:13:48 51°19.694 2°56.407 10.4 311 4.6 102920 86
2005-03-09 08:13:54 51°19.705 2°56.435 12.3 308 4.6 102930 86
2005-03-09 08:13:58 51°19.712 2°56.454 10.2 303 4.6 102930 86
2005-03-09 08:14:03 51°19.72 2°56.475 12.3 234 4.6 102930 86
2005-03-09 08:14:09 51°19.731 2°56.501 11.3 308 4.6 102930 86
2005-03-09 08:14:14 51°19.737 2°56.523 11.5 307 4.6 102930 86
2005-03-09 08:14:20 51°19.749 2°56.548 8.9 40 4.6 102930 86
2005-03-09 08:14:24 51°19.756 2°56.566 11.9 313 4.6 102920 86
2005-03-09 08:14:29 51°19.765 2°56.588 10.6 311 4.6 102920 86
2005-03-09 08:14:34 51°19.776 2°56.612 12.1 310 4.5 102930 86
2005-03-09 08:14:40 51°19.785 2°56.636 11.7 309 4.5 102930 86
2005-03-09 08:14:44 51°19.794 2°56.656 12.7 305 4.6 102910 86
2005-03-09 08:14:49 51°19.803 2°56.678 11.8 309 4.6 102910 86
2005-03-09 08:14:54 51°19.811 2°56.696 13.4 308 4.6 102920 86
2005-03-09 08:14:59 51°19.82 2°56.719 11.1 311 4.6 102920 86
2005-03-09 08:15:04 51°19.83 2°56.741 11.3 307 4.6 102930 86
2005-03-09 08:15:09 51°19.839 2°56.765 10.2 311 4.6 102930 86
2005-03-09 08:15:14 51°19.848 2°56.786 12.2 311 4.6 102930 86
2005-03-09 08:15:18 51°19.855 2°56.804 12.1 310 4.6 102930 86
2005-03-09 08:15:24 51°19.865 2°56.829 11.4 308 4.6 102920 86
2005-03-09 08:15:29 51°19.875 2°56.852 10.9 306 4.6 102920 86
2005-03-09 08:15:34 51°19.883 2°56.871 10.8 310 4.6 102920 86
2005-03-09 08:15:39 51°19.891 2°56.893 11.2 311 4.6 102920 86
2005-03-09 08:15:44 51°19.901 2°56.914 11.5 311 4.6 102920 86
2005-03-09 08:15:50 51°19.911 2°56.941 12.1 312 4.6 102920 86
2005-03-09 08:15:54 51°19.92 2°56.96 12 305 4.6 102930 86
2005-03-09 08:15:58 51°19.926 2°56.978 10.1 306 4.6 102930 86
2005-03-09 08:16:04 51°19.936 2°57.001 12 305 4.6 102920 86
2005-03-09 08:16:09 51°19.946 2°57.024 11.8 310 4.6 102920 86
2005-03-09 08:16:14 51°19.954 2°57.047 11.3 311 4.6 102920 86
2005-03-09 08:16:19 51°19.964 2°57.068 12 308 4.6 102920 86
2005-03-09 08:16:23 51°19.971 2°57.087 11.4 313 4.6 102920 86
2005-03-09 08:16:30 51°19.982 2°57.115 11.9 311 4.6 102920 86
2005-03-09 08:16:34 51°19.989 2°57.132 11.5 314 4.6 102920 86
2005-03-09 08:16:39 51°19.999 2°57.156 11.7 305 4.6 102920 86
2005-03-09 08:16:44 51°20.008 2°57.176 12.3 233 4.6 102920 86
2005-03-09 08:16:49 51°20.016 2°57.199 11.8 311 4.6 102920 86
2005-03-09 08:16:54 51°20.023 2°57.219 11.7 303 4.6 102920 86
2005-03-09 08:16:59 51°20.034 2°57.243 10.5 311 4.6 102920 86
2005-03-09 08:17:04 51°20.042 2°57.263 11.8 309 4.6 102930 86
2005-03-09 08:17:09 51°20.05 2°57.285 13 310 4.6 102930 86
2005-03-09 08:17:14 51°20.06 2°57.308 11.2 309 4.6 102930 86
2005-03-09 08:17:18 51°20.067 2°57.326 11.2 310 4.6 102930 86
2005-03-09 08:17:24 51°20.076 2°57.35 12.1 309 4.6 102910 86
2005-03-09 08:17:29 51°20.086 2°57.375 11.1 313 4.6 102910 86
2005-03-09 08:17:34 51°20.096 2°57.396 12.9 309 4.6 102920 86
2005-03-09 08:17:39 51°20.104 2°57.417 13.1 310 4.6 102920 86
2005-03-09 08:17:44 51°20.111 2°57.438 10.2 308 4.6 102920 86
2005-03-09 08:17:48 51°20.12 2°57.454 11.3 311 4.6 102920 86
2005-03-09 08:17:54 51°20.13 2°57.48 12.9 311 4.6 102920 86
2005-03-09 08:17:59 51°20.14 2°57.505 12.2 310 4.6 102920 86
2005-03-09 08:18:04 51°20.148 2°57.524 12.3 307 4.6 102930 86
2005-03-09 08:18:08 51°20.156 2°57.545 12.1 310 4.6 102930 86
2005-03-09 08:18:14 51°20.166 2°57.57 12.1 310 4.6 102910 86
2005-03-09 08:18:18 51°20.172 2°57.585 11.7 310 4.6 102910 86
2005-03-09 08:18:24 51°20.183 2°57.612 11.1 310 4.6 102910 86
2005-03-09 08:18:29 51°20.193 2°57.636 10.6 307 4.6 102910 86
2005-03-09 08:18:34 51°20.201 2°57.656 11.1 306 4.6 102930 86
2005-03-09 08:18:40 51°20.211 2°57.683 10.8 309 4.6 102930 86
2005-03-09 08:18:44 51°20.219 2°57.701 10.6 313 4.6 102920 86
2005-03-09 08:18:49 51°20.226 2°57.722 11.3 312 4.6 102920 86
2005-03-09 08:18:54 51°20.236 2°57.745 11.5 313 4.6 102930 87
2005-03-09 08:18:58 51°20.244 2°57.765 10.7 231 4.6 102930 87
2005-03-09 08:19:04 51°20.253 2°57.788 12.1 308 4.6 102920 87
2005-03-09 08:19:09 51°20.262 2°57.811 10.6 314 4.6 102920 87
2005-03-09 08:19:14 51°20.272 2°57.835 12.5 310 4.6 102930 87
2005-03-09 08:19:19 51°20.281 2°57.858 11.2 305 4.6 102930 87
2005-03-09 08:19:24 51°20.29 2°57.88 11.3 308 4.6 102920 87
2005-03-09 08:19:29 51°20.297 2°57.899 12.2 310 4.6 102920 87
2005-03-09 08:19:34 51°20.307 2°57.921 10 312 4.6 102920 87
2005-03-09 08:19:39 51°20.316 2°57.944 11.1 309 4.6 102920 87
2005-03-09 08:19:44 51°20.325 2°57.965 10.6 308 4.6 102920 87
2005-03-09 08:19:48 51°20.332 2°57.983 11.4 306 4.6 102920 87
2005-03-09 08:19:54 51°20.344 2°58.011 11.8 308 4.6 102920 87
2005-03-09 08:19:58 51°20.352 2°58.029 11.4 301 4.6 102920 87
2005-03-09 08:20:04 51°20.362 2°58.053 11 313 4.6 102930 87
2005-03-09 08:20:09 51°20.372 2°58.078 11.7 301 4.6 102930 87
2005-03-09 08:20:14 51°20.381 2°58.1 10.4 314 4.6 102930 87
2005-03-09 08:20:19 51°20.39 2°58.123 11.8 310 4.6 102930 87
2005-03-09 08:20:24 51°20.398 2°58.143 11.4 306 4.6 102920 87
2005-03-09 08:20:29 51°20.408 2°58.168 11.4 308 4.6 102920 87
2005-03-09 08:20:34 51°20.418 2°58.19 10.9 309 4.6 102920 87
2005-03-09 08:20:39 51°20.427 2°58.213 11 313 4.6 102920 87
2005-03-09 08:20:44 51°20.436 2°58.236 12.5 307 4.6 102930 87
2005-03-09 08:20:49 51°20.445 2°58.259 12.9 306 4.6 102930 87
2005-03-09 08:20:54 51°20.454 2°58.281 11.1 312 4.6 102920 87
2005-03-09 08:20:58 51°20.461 2°58.299 11.7 310 4.6 102920 87
2005-03-09 08:21:04 51°20.472 2°58.326 10.8 310 4.6 102920 87
2005-03-09 08:21:08 51°20.48 2°58.342 10.7 308 4.6 102920 87
2005-03-09 08:21:14 51°20.49 2°58.369 12.6 313 4.6 102910 87
2005-03-09 08:21:19 51°20.501 2°58.393 12 305 4.6 102910 87
2005-03-09 08:21:24 51°20.509 2°58.414 11.7 310 4.6 102920 87
2005-03-09 08:21:29 51°20.52 2°58.438 10.7 307 4.6 102920 87
2005-03-09 08:21:34 51°20.528 2°58.461 12.2 310 4.6 102930 87
2005-03-09 08:21:38 51°20.537 2°58.478 12.5 314 4.6 102930 87
2005-03-09 08:21:45 51°20.548 2°58.509 11.5 308 4.6 102920 87
2005-03-09 08:21:48 51°20.555 2°58.524 11.6 308 4.6 102920 87
2005-03-09 08:21:54 51°20.565 2°58.548 11.5 313 4.6 102920 87
2005-03-09 08:21:59 51°20.574 2°58.57 10.4 308 4.6 102920 87
2005-03-09 08:22:04 51°20.583 2°58.593 11.6 311 4.6 102910 87
2005-03-09 08:22:09 51°20.593 2°58.617 11.2 309 4.6 102910 87
2005-03-09 08:22:14 51°20.602 2°58.64 10.7 304 4.6 102910 87
2005-03-09 08:22:19 51°20.612 2°58.663 12.1 304 4.6 102910 87
2005-03-09 08:22:24 51°20.621 2°58.685 11.3 306 4.6 102920 87
2005-03-09 08:22:30 51°20.631 2°58.709 13.8 298 4.6 102920 87
2005-03-09 08:22:34 51°20.64 2°58.728 12.9 305 4.6 102920 87
2005-03-09 08:22:38 51°20.646 2°58.747 11.5 307 4.6 102920 87
2005-03-09 08:22:43 51°20.656 2°58.769 11.6 307 4.6 102910 87
2005-03-09 08:22:49 51°20.666 2°58.795 11.8 308 4.6 102910 87
2005-03-09 08:22:54 51°20.676 2°58.819 12.2 311 4.6 102910 87
2005-03-09 08:22:59 51°20.683 2°58.841 11.8 308 4.6 102910 87
2005-03-09 08:23:04 51°20.693 2°58.862 12.3 310 4.6 102920 87
2005-03-09 08:23:09 51°20.702 2°58.884 11.2 309 4.6 102920 87
2005-03-09 08:23:14 51°20.712 2°58.907 12.1 309 4.6 102920 87
2005-03-09 08:23:19 51°20.721 2°58.932 12 305 4.6 102920 87
2005-03-09 08:23:24 51°20.729 2°58.952 12 308 4.6 102910 87
2005-03-09 08:23:28 51°20.736 2°58.97 11.3 305 4.6 102910 87
2005-03-09 08:23:34 51°20.747 2°58.999 10.2 314 4.6 102920 87
2005-03-09 08:23:40 51°20.759 2°59.024 12.5 308 4.6 102920 87
2005-03-09 08:23:44 51°20.766 2°59.044 10.7 306 4.6 102920 87
2005-03-09 08:23:49 51°20.775 2°59.067 11.9 311 4.6 102920 87
2005-03-09 08:23:54 51°20.783 2°59.086 11.4 309 4.6 102960 87
2005-03-09 08:23:59 51°20.793 2°59.111 12.6 302 4.6 102960 87
2005-03-09 08:24:04 51°20.802 2°59.132 10.8 314 4.6 102910 87
2005-03-09 08:24:08 51°20.81 2°59.15 11.2 309 4.6 102910 87
2005-03-09 08:24:14 51°20.821 2°59.174 11.3 302 4.6 102920 87
2005-03-09 08:24:18 51°20.828 2°59.196 11.2 306 4.6 102920 87
2005-03-09 08:24:24 51°20.839 2°59.219 12.2 307 4.6 102920 87
2005-03-09 08:24:29 51°20.849 2°59.245 12.2 306 4.6 102920 87
2005-03-09 08:24:34 51°20.859 2°59.266 12.3 304 4.6 102920 87
2005-03-09 08:24:39 51°20.868 2°59.288 10.9 306 4.6 102920 87
2005-03-09 08:24:44 51°20.878 2°59.31 12.7 304 4.6 102920 87
2005-03-09 08:24:49 51°20.887 2°59.333 12.4 302 4.6 102920 87
2005-03-09 08:24:54 51°20.896 2°59.355 10.6 305 4.6 102920 87
2005-03-09 08:24:59 51°20.904 2°59.377 12.5 306 4.6 102920 87
2005-03-09 08:25:04 51°20.913 2°59.397 12.7 304 4.6 102910 87
2005-03-09 08:25:08 51°20.922 2°59.418 10.9 307 4.6 102910 87
2005-03-09 08:25:14 51°20.932 2°59.445 10.4 309 4.6 102920 87
2005-03-09 08:25:18 51°20.94 2°59.463 11.1 306 4.6 102920 87
2005-03-09 08:25:24 51°20.95 2°59.487 11.9 305 4.6 102910 87
2005-03-09 08:25:29 51°20.961 2°59.511 11.5 312 4.6 102910 87
2005-03-09 08:25:34 51°20.969 2°59.534 12.4 310 4.6 102900 87
2005-03-09 08:25:39 51°20.979 2°59.553 10.8 305 4.6 102900 87
2005-03-09 08:25:43 51°20.986 2°59.574 10.7 310 4.6 102900 87
2005-03-09 08:25:48 51°20.995 2°59.593 12.4 306 4.6 102900 87
2005-03-09 08:25:54 51°21.006 2°59.621 10.9 305 4.6 102910 87
2005-03-09 08:25:59 51°21.016 2°59.645 11.8 307 4.6 102910 87
2005-03-09 08:26:04 51°21.025 2°59.667 12.1 308 4.6 102910 87
2005-03-09 08:26:09 51°21.035 2°59.689 10.3 304 4.6 102910 87
2005-03-09 08:26:14 51°21.043 2°59.709 11.2 303 4.6 102910 87
2005-03-09 08:26:19 51°21.053 2°59.734 10.7 306 4.6 102910 87
2005-03-09 08:26:22 51°21.059 2°59.748 11 306 4.6 102910 88
2005-03-09 08:26:30 51°21.072 2°59.782 10.7 307 4.6 102910 88
2005-03-09 08:26:34 51°21.079 2°59.8 11.5 311 4.6 102910 88
2005-03-09 08:26:39 51°21.088 2°59.823 12.4 306 4.6 102910 88
2005-03-09 08:26:44 51°21.097 2°59.846 10.2 305 4.6 102910 88
2005-03-09 08:26:49 51°21.106 2°59.868 12.5 305 4.6 102910 88
2005-03-09 08:26:54 51°21.116 2°59.893 10.7 304 4.6 102910 88
2005-03-09 08:26:59 51°21.124 2°59.913 11.5 311 4.6 102910 88
2005-03-09 08:27:04 51°21.134 2°59.937 12.1 306 4.6 102910 88
2005-03-09 08:27:09 51°21.144 2°59.961 11 306 4.6 102910 88
2005-03-09 08:27:14 51°21.152 2°59.985 11.3 304 4.6 102910 88
2005-03-09 08:27:19 51°21.162 3°0.007 11.8 303 4.6 102910 88
2005-03-09 08:27:23 51°21.169 3°0.025 10.6 310 4.6 102920 88
2005-03-09 08:27:28 51°21.177 3°0.045 11.3 305 4.6 102920 88
2005-03-09 08:27:34 51°21.189 3°0.074 12 310 4.6 102910 88
2005-03-09 08:27:38 51°21.196 3°0.092 11.7 311 4.6 102910 88
2005-03-09 08:27:44 51°21.207 3°0.117 11.7 306 4.6 102900 88
2005-03-09 08:27:48 51°21.216 3°0.137 11.6 314 4.6 102900 88
2005-03-09 08:27:54 51°21.226 3°0.165 10.8 305 4.6 102910 88
2005-03-09 08:27:59 51°21.235 3°0.187 10.6 309 4.6 102910 88
2005-03-09 08:28:04 51°21.243 3°0.207 10.4 310 4.6 102920 88
2005-03-09 08:28:08 51°21.251 3°0.225 10.2 310 4.6 102920 88
2005-03-09 08:28:14 51°21.262 3°0.251 11.8 306 4.6 102910 88
2005-03-09 08:28:19 51°21.271 3°0.275 11.3 304 4.6 102910 88
2005-03-09 08:28:24 51°21.28 3°0.298 10 306 4.5 102910 88
2005-03-09 08:28:28 51°21.287 3°0.316 11.1 308 4.5 102910 88
2005-03-09 08:28:34 51°21.299 3°0.345 12.5 308 4.6 102910 88
2005-03-09 08:28:39 51°21.307 3°0.366 12.4 311 4.6 102910 88
2005-03-09 08:28:44 51°21.318 3°0.391 12.3 307 4.6 102920 88
2005-03-09 08:28:48 51°21.323 3°0.407 10.3 311 4.6 102920 88
2005-03-09 08:28:54 51°21.335 3°0.433 11.6 303 4.6 102920 88
2005-03-09 08:28:58 51°21.343 3°0.455 11 311 4.6 102920 88
2005-03-09 08:29:03 51°21.352 3°0.477 11 308 4.6 102920 88
2005-03-09 08:29:08 51°21.36 3°0.498 11.6 302 4.6 102920 88
2005-03-09 08:29:14 51°21.373 3°0.527 12.2 308 4.6 102920 88
2005-03-09 08:29:18 51°21.379 3°0.546 11.2 306 4.6 102920 88
2005-03-09 08:29:24 51°21.389 3°0.573 11.2 307 4.6 102920 88
2005-03-09 08:29:27 51°21.394 3°0.589 10.1 312 4.6 102920 88
2005-03-09 08:29:34 51°21.405 3°0.623 11.1 308 4.6 102910 88
2005-03-09 08:29:40 51°21.413 3°0.649 9.3 309 4.6 102910 88
2005-03-09 08:29:44 51°21.42 3°0.668 11.8 302 4.6 102910 88
2005-03-09 08:29:48 51°21.426 3°0.689 10.4 306 4.6 102910 88
2005-03-09 08:29:54 51°21.436 3°0.72 12.5 304 4.6 102920 88
2005-03-09 08:30:00 51°21.445 3°0.747 10.9 303 4.6 102920 88
2005-03-09 08:30:04 51°21.451 3°0.766 10.3 304 4.6 102910 88
2005-03-09 08:30:07 51°21.456 3°0.784 11.1 302 4.6 102910 88
2005-03-09 08:30:14 51°21.468 3°0.819 11.4 302 4.6 102910 88
2005-03-09 08:30:18 51°21.474 3°0.838 10.5 308 4.6 102910 88
2005-03-09 08:30:24 51°21.483 3°0.865 12.4 298 4.6 102910 88
2005-03-09 08:30:27 51°21.488 3°0.882 11.3 306 4.6 102910 88
2005-03-09 08:30:34 51°21.499 3°0.915 11.1 302 4.6 102920 88
2005-03-09 08:30:39 51°21.504 3°0.939 11.5 299 4.6 102920 88
2005-03-09 08:30:44 51°21.514 3°0.962 10.4 304 4.6 102910 88
2005-03-09 08:30:49 51°21.52 3°0.987 11 308 4.6 102910 88
2005-03-09 08:30:54 51°21.53 3°1.014 11.4 298 4.6 102910 88
2005-03-09 08:30:58 51°21.535 3°1.033 9.8 308 4.6 102910 88
2005-03-09 08:31:02 51°21.54 3°1.053 10.9 300 4.6 102920 88
2005-03-09 08:31:09 51°21.55 3°1.089 12 298 4.6 102920 88
2005-03-09 08:31:14 51°21.558 3°1.11 11.8 305 4.6 102920 88
2005-03-09 08:31:19 51°21.564 3°1.135 11.2 307 4.6 102920 88
2005-03-09 08:31:24 51°21.572 3°1.16 9 304 4.6 102910 88
2005-03-09 08:31:29 51°21.579 3°1.188 11.5 310 4.6 102910 88
2005-03-09 08:31:34 51°21.586 3°1.21 10.3 302 4.6 102910 88
2005-03-09 08:31:38 51°21.593 3°1.233 10.6 308 4.6 102910 88
2005-03-09 08:31:44 51°21.601 3°1.259 10.7 310 4.6 102910 88
2005-03-09 08:31:49 51°21.61 3°1.287 9.8 306 4.6 102910 88
2005-03-09 08:31:54 51°21.618 3°1.311 9.9 304 4.6 102920 88
2005-03-09 08:31:58 51°21.623 3°1.331 9.8 302 4.6 102920 88
2005-03-09 08:32:04 51°21.633 3°1.361 10.6 300 4.6 102910 88
2005-03-09 08:32:09 51°21.64 3°1.385 11.4 300 4.6 102910 88
2005-03-09 08:32:14 51°21.648 3°1.409 10.3 304 4.6 102910 88
2005-03-09 08:32:18 51°21.655 3°1.429 10.5 305 4.6 102910 88
2005-03-09 08:32:24 51°21.663 3°1.456 10.6 307 4.6 102920 88
2005-03-09 08:32:29 51°21.671 3°1.482 9.2 313 4.6 102920 88
2005-03-09 08:32:34 51°21.678 3°1.506 9.5 302 4.6 102910 88
2005-03-09 08:32:39 51°21.686 3°1.532 10.5 302 4.6 102910 88
2005-03-09 08:32:44 51°21.693 3°1.554 11.9 299 4.6 102920 88
2005-03-09 08:32:46 51°21.696 3°1.567 9.7 314 4.6 102920 88
2005-03-09 08:32:54 51°21.71 3°1.604 9.9 311 4.6 102910 88
2005-03-09 08:32:59 51°21.718 3°1.626 10.9 308 4.6 102910 88
2005-03-09 08:33:04 51°21.728 3°1.648 10.8 310 4.6 102910 88
2005-03-09 08:33:08 51°21.736 3°1.667 11.4 310 4.6 102910 88
2005-03-09 08:33:14 51°21.747 3°1.695 10.9 306 4.6 102910 89
2005-03-09 08:33:19 51°21.756 3°1.719 11 310 4.6 102910 89
2005-03-09 08:33:24 51°21.766 3°1.742 11.8 308 4.6 102910 89
2005-03-09 08:33:28 51°21.773 3°1.761 11.3 306 4.6 102910 89
2005-03-09 08:33:34 51°21.784 3°1.788 10.7 312 4.6 102910 89
2005-03-09 08:33:39 51°21.793 3°1.81 11 311 4.6 102910 89
2005-03-09 08:33:44 51°21.802 3°1.834 10.3 311 4.6 102910 89
2005-03-09 08:33:49 51°21.811 3°1.854 12.2 312 4.6 102910 89
2005-03-09 08:33:54 51°21.821 3°1.877 10.6 314 4.6 102900 89
2005-03-09 08:33:59 51°21.831 3°1.896 11.5 307 4.6 102900 89
2005-03-09 08:34:04 51°21.842 3°1.917 11.9 312 4.6 102920 89
2005-03-09 08:34:08 51°21.852 3°1.937 12.3 311 4.6 102920 89
2005-03-09 08:34:14 51°21.865 3°1.96 11 310 4.6 102900 89
2005-03-09 08:34:18 51°21.873 3°1.978 12.2 234 4.6 102900 89
2005-03-09 08:34:24 51°21.884 3°2 11.2 303 4.6 102900 89
2005-03-09 08:34:28 51°21.893 3°2.018 12.3 311 4.6 102900 89
2005-03-09 08:34:34 51°21.907 3°2.043 11.3 313 4.6 102910 89
2005-03-09 08:34:39 51°21.919 3°2.062 12.4 314 4.6 102910 89
2005-03-09 08:34:44 51°21.929 3°2.08 12.5 311 4.6 102920 89
2005-03-09 08:34:49 51°21.941 3°2.101 11.7 310 4.6 102920 89
2005-03-09 08:34:54 51°21.953 3°2.123 11.7 228 4.6 102900 89
2005-03-09 08:34:58 51°21.963 3°2.137 12.1 227 4.6 102900 89
2005-03-09 08:35:04 51°21.977 3°2.157 13.6 316 4.6 102890 89
2005-03-09 08:35:10 51°21.993 3°2.176 12.6 318 4.6 102890 89
2005-03-09 08:35:14 51°22.006 3°2.19 12.4 40 4.6 102900 89
2005-03-09 08:35:18 51°22.017 3°2.202 12.2 319 4.6 102900 89
2005-03-09 08:35:24 51°22.034 3°2.22 12.4 42 4.6 102900 89
2005-03-09 08:35:29 51°22.048 3°2.234 13.2 318 4.6 102900 89
2005-03-09 08:35:34 51°22.062 3°2.246 13.5 320 4.6 102900 89
2005-03-09 08:35:38 51°22.074 3°2.259 14.1 318 4.6 102900 89
2005-03-09 08:35:43 51°22.089 3°2.273 12.8 41 4.6 102900 89
2005-03-09 08:35:49 51°22.105 3°2.289 12.8 320 4.6 102900 89
2005-03-09 08:35:54 51°22.117 3°2.302 13 41 4.6 102900 89
2005-03-09 08:35:58 51°22.13 3°2.317 12.7 317 4.6 102900 89
2005-03-09 08:36:04 51°22.147 3°2.333 13.2 316 4.6 102900 89
2005-03-09 08:36:08 51°22.158 3°2.345 14.9 320 4.6 102900 89
2005-03-09 08:36:14 51°22.172 3°2.361 11.4 316 4.6 102900 89
2005-03-09 08:36:19 51°22.188 3°2.376 12.3 39 4.6 102900 89
2005-03-09 08:36:24 51°22.199 3°2.388 12.2 39 4.6 102890 89
2005-03-09 08:36:28 51°22.213 3°2.402 11.9 323 4.6 102890 89
2005-03-09 08:36:34 51°22.229 3°2.418 13.8 41 4.6 102900 89
2005-03-09 08:36:39 51°22.242 3°2.432 13.8 318 4.6 102900 89
2005-03-09 08:36:44 51°22.256 3°2.445 14 319 4.6 102890 89
2005-03-09 08:36:49 51°22.271 3°2.461 13.4 42 4.6 102890 89
2005-03-09 08:36:54 51°22.284 3°2.473 13.4 315 4.6 102890 89
2005-03-09 08:36:58 51°22.296 3°2.486 13.3 319 4.6 102890 89
2005-03-09 08:37:03 51°22.311 3°2.501 12.9 318 4.6 102890 89
2005-03-09 08:37:09 51°22.326 3°2.517 13.3 317 4.6 102890 89
2005-03-09 08:37:14 51°22.339 3°2.532 11.9 320 4.6 102890 89
2005-03-09 08:37:19 51°22.355 3°2.547 12.9 318 4.6 102890 89
2005-03-09 08:37:24 51°22.368 3°2.561 12.2 318 4.6 102900 89
2005-03-09 08:37:28 51°22.379 3°2.572 13.5 320 4.6 102900 89
2005-03-09 08:37:34 51°22.396 3°2.589 11.9 319 4.6 102900 89
2005-03-09 08:37:39 51°22.411 3°2.604 11.4 321 4.6 102900 89
2005-03-09 08:37:44 51°22.423 3°2.617 13.4 316 4.6 102890 89
2005-03-09 08:37:49 51°22.439 3°2.634 13.2 316 4.6 102890 89
2005-03-09 08:37:54 51°22.451 3°2.647 13.2 317 4.6 102890 89
2005-03-09 08:37:58 51°22.464 3°2.659 11.3 315 4.6 102890 89
2005-03-09 08:38:03 51°22.478 3°2.674 12.8 316 4.6 102890 89
2005-03-09 08:38:09 51°22.495 3°2.691 12.4 316 4.6 102890 89
2005-03-09 08:38:14 51°22.507 3°2.703 13.1 322 4.6 102890 89
2005-03-09 08:38:19 51°22.524 3°2.718 15.1 324 4.6 102890 89
2005-03-09 08:38:24 51°22.539 3°2.725 15.2 325 4.6 102890 89
2005-03-09 08:38:28 51°22.55 3°2.729 15 335 4.6 102890 89
2005-03-09 08:38:34 51°22.571 3°2.73 14.9 336 4.6 102900 89
2005-03-09 08:38:39 51°22.585 3°2.729 14.8 341 4.6 102900 89
2005-03-09 08:38:44 51°22.6 3°2.723 14.8 347 4.6 102890 89
2005-03-09 08:38:49 51°22.617 3°2.717 15 345 4.6 102890 89
2005-03-09 08:38:54 51°22.631 3°2.711 14.2 341 4.6 102890 89
2005-03-09 08:38:59 51°22.647 3°2.705 15 345 4.6 102890 89
2005-03-09 08:39:03 51°22.662 3°2.7 15.1 344 4.6 102900 89
2005-03-09 08:39:09 51°22.681 3°2.694 15.9 345 4.6 102900 89
2005-03-09 08:39:14 51°22.697 3°2.69 15 343 4.6 102900 89
2005-03-09 08:39:19 51°22.713 3°2.685 15.5 345 4.6 102900 89
2005-03-09 08:39:24 51°22.73 3°2.681 14.8 346 4.6 102900 89
2005-03-09 08:39:29 51°22.745 3°2.677 16.2 344 4.6 102900 89
2005-03-09 08:39:34 51°22.763 3°2.672 16.3 347 4.6 102900 89
2005-03-09 08:39:38 51°22.777 3°2.668 15 345 4.6 102900 89
2005-03-09 08:39:44 51°22.797 3°2.664 15.1 344 4.6 102900 89
2005-03-09 08:39:48 51°22.809 3°2.66 15.7 341 4.6 102900 89
2005-03-09 08:39:54 51°22.828 3°2.654 14.6 343 4.6 102900 89
2005-03-09 08:39:58 51°22.843 3°2.649 15 345 4.6 102900 89
2005-03-09 08:40:04 51°22.861 3°2.642 14.4 345 4.6 102900 89
2005-03-09 08:40:09 51°22.879 3°2.636 16.4 344 4.6 102900 89
2005-03-09 08:40:14 51°22.894 3°2.63 15.9 346 4.6 102900 89
2005-03-09 08:40:19 51°22.912 3°2.624 16.1 345 4.6 102900 89
2005-03-09 08:40:24 51°22.926 3°2.618 15.5 350 4.7 102890 89
2005-03-09 08:40:30 51°22.947 3°2.61 15.3 345 4.7 102890 89
2005-03-09 08:40:34 51°22.961 3°2.605 15.5 350 4.6 102900 89
2005-03-09 08:40:38 51°22.975 3°2.6 14.5 350 4.6 102900 89
2005-03-09 08:40:45 51°22.996 3°2.592 15.7 350 4.6 102900 89
2005-03-09 08:40:49 51°23.011 3°2.586 15 347 4.6 102900 89
2005-03-09 08:40:54 51°23.026 3°2.58 16.1 350 4.6 102900 89
2005-03-09 08:40:59 51°23.045 3°2.573 15.2 347 4.6 102900 89
2005-03-09 08:41:04 51°23.06 3°2.567 15.1 348 4.7 102900 88
2005-03-09 08:41:08 51°23.074 3°2.562 15.3 350 4.7 102900 88
2005-03-09 08:41:14 51°23.093 3°2.554 14.7 349 4.7 102900 88
2005-03-09 08:41:19 51°23.109 3°2.548 16.3 348 4.7 102900 88
2005-03-09 08:41:24 51°23.126 3°2.54 14.7 354 4.7 102900 88
2005-03-09 08:41:29 51°23.143 3°2.533 13.9 345 4.7 102900 88
2005-03-09 08:41:34 51°23.159 3°2.526 15.8 350 4.7 102900 88
2005-03-09 08:41:39 51°23.174 3°2.518 15.2 350 4.7 102900 88
2005-03-09 08:41:43 51°23.19 3°2.512 14.4 346 4.7 102900 88
2005-03-09 08:41:49 51°23.21 3°2.504 16.2 349 4.7 102900 88
2005-03-09 08:41:54 51°23.224 3°2.497 16.8 349 4.7 102900 88
2005-03-09 08:41:59 51°23.243 3°2.489 15 350 4.7 102900 88
2005-03-09 08:42:04 51°23.259 3°2.482 15.6 350 4.7 102900 88
2005-03-09 08:42:08 51°23.271 3°2.477 14.8 350 4.7 102900 88
2005-03-09 08:42:14 51°23.292 3°2.467 16.9 349 4.6 102900 88
2005-03-09 08:42:19 51°23.308 3°2.46 16.4 347 4.6 102900 88
2005-03-09 08:42:24 51°23.326 3°2.453 15.1 345 4.7 102890 88
2005-03-09 08:42:28 51°23.337 3°2.448 15.4 347 4.7 102890 88
2005-03-09 08:42:34 51°23.356 3°2.439 15.1 349 4.7 102900 88
2005-03-09 08:42:38 51°23.371 3°2.432 15.4 348 4.7 102900 88
2005-03-09 08:42:44 51°23.39 3°2.424 16.6 350 4.7 102900 88
2005-03-09 08:42:48 51°23.402 3°2.419 15.3 350 4.7 102900 88
2005-03-09 08:42:54 51°23.423 3°2.41 15.8 350 4.7 102900 88
2005-03-09 08:42:59 51°23.439 3°2.403 17.5 347 4.7 102900 88
2005-03-09 08:43:04 51°23.454 3°2.397 16.3 349 4.7 102900 88
2005-03-09 08:43:08 51°23.467 3°2.392 15.9 345 4.7 102900 88
2005-03-09 08:43:14 51°23.488 3°2.383 16.7 346 4.7 102900 88
2005-03-09 08:43:19 51°23.504 3°2.376 15.4 350 4.7 102900 88
2005-03-09 08:43:24 51°23.519 3°2.369 15 350 4.7 102900 88
2005-03-09 08:43:27 51°23.531 3°2.365 15.6 348 4.7 102900 88
2005-03-09 08:43:34 51°23.553 3°2.355 16.7 349 4.7 102900 88
2005-03-09 08:43:38 51°23.566 3°2.349 15.9 349 4.7 102900 88
2005-03-09 08:43:43 51°23.582 3°2.342 16 345 4.7 102900 88
2005-03-09 08:43:49 51°23.601 3°2.334 16.7 346 4.7 102900 88
2005-03-09 08:43:54 51°23.615 3°2.327 15.9 349 4.7 102900 88
2005-03-09 08:43:59 51°23.632 3°2.319 16.3 346 4.7 102900 88
2005-03-09 08:44:04 51°23.649 3°2.312 15.9 346 4.7 102890 88
2005-03-09 08:44:09 51°23.666 3°2.304 16.5 344 4.7 102890 88
2005-03-09 08:44:14 51°23.682 3°2.298 15.7 345 4.7 102890 88
2005-03-09 08:44:19 51°23.7 3°2.291 13.6 342 4.7 102890 88
2005-03-09 08:44:24 51°23.714 3°2.286 15.6 346 4.7 102890 88
2005-03-09 08:44:29 51°23.73 3°2.282 14.5 342 4.7 102890 88
2005-03-09 08:44:34 51°23.746 3°2.279 13.6 343 4.7 102890 88
2005-03-09 08:44:39 51°23.764 3°2.275 15.1 344 4.7 102890 88
2005-03-09 08:44:44 51°23.779 3°2.273 15.9 342 4.7 102900 88
2005-03-09 08:44:49 51°23.797 3°2.271 16.7 340 4.7 102900 88
2005-03-09 08:44:54 51°23.814 3°2.269 14.5 340 4.7 102890 88
2005-03-09 08:44:58 51°23.828 3°2.269 14.6 343 4.7 102890 88
2005-03-09 08:45:04 51°23.846 3°2.267 15.3 341 4.8 102900 88
2005-03-09 08:45:10 51°23.866 3°2.265 16.5 343 4.8 102900 88
2005-03-09 08:45:14 51°23.881 3°2.264 17.1 340 4.8 102890 88
2005-03-09 08:45:19 51°23.897 3°2.263 14.6 336 4.8 102890 88
2005-03-09 08:45:24 51°23.913 3°2.262 17.1 339 4.8 102890 88
2005-03-09 08:45:29 51°23.932 3°2.262 13.9 340 4.8 102890 88
2005-03-09 08:45:34 51°23.948 3°2.263 14.9 334 4.8 102900 88
2005-03-09 08:45:38 51°23.962 3°2.265 14.5 336 4.8 102900 88
2005-03-09 08:45:43 51°23.979 3°2.266 15.5 338 4.8 102890 88
2005-03-09 08:45:49 51°23.999 3°2.269 16.3 336 4.8 102890 88
2005-03-09 08:45:54 51°24.013 3°2.272 13 334 4.8 102900 88
2005-03-09 08:45:59 51°24.03 3°2.278 14.3 330 4.8 102900 88
2005-03-09 08:46:04 51°24.047 3°2.283 13 336 4.8 102890 87
2005-03-09 08:46:08 51°24.061 3°2.289 13.9 331 4.8 102890 87
2005-03-09 08:46:14 51°24.079 3°2.299 13.4 331 4.7 102890 87
2005-03-09 08:46:19 51°24.094 3°2.306 14.8 332 4.7 102890 87
2005-03-09 08:46:24 51°24.11 3°2.316 12.5 325 4.7 102900 87
2005-03-09 08:46:28 51°24.122 3°2.324 11.4 322 4.7 102900 87
2005-03-09 08:46:34 51°24.141 3°2.337 15 328 4.8 102890 87
2005-03-09 08:46:39 51°24.157 3°2.348 13.3 320 4.8 102890 87
2005-03-09 08:46:44 51°24.17 3°2.357 14.8 327 4.8 102890 87
2005-03-09 08:46:49 51°24.187 3°2.37 13.2 325 4.8 102890 87
2005-03-09 08:46:54 51°24.202 3°2.38 13.6 326 4.8 102890 87
2005-03-09 08:46:58 51°24.215 3°2.389 12.1 326 4.8 102890 87
2005-03-09 08:47:04 51°24.231 3°2.401 13.4 323 4.8 102890 87
2005-03-09 08:47:09 51°24.247 3°2.417 12.1 319 4.8 102890 87
2005-03-09 08:47:14 51°24.259 3°2.433 13.6 316 4.8 102890 87
2005-03-09 08:47:18 51°24.27 3°2.446 11.1 318 4.8 102890 87
2005-03-09 08:47:24 51°24.284 3°2.466 13.5 43 4.7 102880 87
2005-03-09 08:47:30 51°24.298 3°2.487 12.6 43 4.7 102880 87
2005-03-09 08:47:34 51°24.308 3°2.502 12.2 317 4.7 102900 87
2005-03-09 08:47:39 51°24.323 3°2.522 12.4 311 4.7 102900 87
2005-03-09 08:47:44 51°24.333 3°2.541 11 227 4.8 102880 87
2005-03-09 08:47:47 51°24.341 3°2.554 10.8 313 4.8 102880 87
2005-03-09 08:47:54 51°24.358 3°2.583 11.7 229 4.7 102890 87
2005-03-09 08:47:59 51°24.37 3°2.603 11.5 311 4.7 102890 87
2005-03-09 08:48:04 51°24.379 3°2.621 12.8 231 4.7 102890 87
2005-03-09 08:48:09 51°24.391 3°2.646 10.8 313 4.7 102890 87
2005-03-09 08:48:14 51°24.402 3°2.668 11.6 314 4.8 102890 87
2005-03-09 08:48:19 51°24.413 3°2.691 11.4 312 4.8 102890 87
2005-03-09 08:48:24 51°24.423 3°2.71 11.3 229 4.7 102890 87
2005-03-09 08:48:29 51°24.433 3°2.732 12.3 228 4.7 102890 87
2005-03-09 08:48:34 51°24.444 3°2.754 12.4 314 4.8 102890 87
2005-03-09 08:48:38 51°24.453 3°2.775 13.4 311 4.8 102890 87
2005-03-09 08:48:44 51°24.465 3°2.799 11.5 312 4.8 102900 87
2005-03-09 08:48:49 51°24.477 3°2.824 11 310 4.8 102900 87
2005-03-09 08:48:54 51°24.488 3°2.844 12.9 311 4.8 102900 87
2005-03-09 08:48:59 51°24.498 3°2.867 9.8 229 4.8 102900 87
2005-03-09 08:49:04 51°24.51 3°2.888 13.1 314 4.7 102890 87
2005-03-09 08:49:08 51°24.517 3°2.904 12.9 314 4.7 102890 87
2005-03-09 08:49:14 51°24.531 3°2.932 11.1 312 4.7 102890 87
2005-03-09 08:49:18 51°24.54 3°2.949 9.8 314 4.7 102890 87
2005-03-09 08:49:24 51°24.552 3°2.973 11.7 312 4.8 102900 87
2005-03-09 08:49:29 51°24.564 3°2.998 11.7 228 4.8 102900 87
2005-03-09 08:49:34 51°24.574 3°3.02 10.9 309 4.7 102900 87
2005-03-09 08:49:38 51°24.583 3°3.038 11.8 310 4.7 102900 87
2005-03-09 08:49:44 51°24.595 3°3.063 11 311 4.7 102900 87
2005-03-09 08:49:48 51°24.603 3°3.084 11.6 310 4.7 102900 87